Kenai, AK

1:24 AM AKDT on June 24, 2017 (GMT -0800)
Kenai Municipal

Weather History for PAEN - February, 2014

Change the Weather History Date:

Monday, February 17, 2014

  Actual Average Record
Temperature  
Mean Temperature 15 °F -  
Max Temperature 25 °F 25 °F 41 °F (2015)
Min Temperature 3 °F 6 °F -31 °F (1954)
Degree Days  
Heating Degree Days 50    
Moisture  
Dew Point 13 °F    
Average Humidity 87    
Maximum Humidity 100    
Minimum Humidity 65    
Precipitation  
Precipitation 0.01 in - - ()
Sea Level Pressure  
Sea Level Pressure 29.11 in    
Wind  
Wind Speed 1 mph (NNE)    
Max Wind Speed 8 mph    
Max Gust Speed -    
Visibility 8 miles    
Events Snow    
Averages and records for this station are not official NWS values.
T = Trace of Precipitation, MM = Missing Value Source: NWS Daily Summary

Daily Weather History Graph

Daily Weather History Graph

Search for Another Location

Airport or City:

Trip Planner

Search our weather history database for the weather conditions in past years. The results will help you decide how hot, cold, wet, or windy it might be!

Date:

Astronomy

Feb. 17, 2014 Rise Set
Actual Time 8:38 AM AKST 6:00 PM AKST
Civil Twilight 7:54 AM AKST 6:44 PM AKST
Nautical Twilight 7:05 AM AKST 7:34 PM AKST
Astronomical Twilight 6:16 AM AKST 8:23 PM AKST
Moon 10:06 PM AKST (2/17) 8:51 AM AKST (2/17)
Length of Visible Light 10h 50m
Length of Day
9h 21m
Waning Gibbous, 92% of the Moon is Illuminated
Feb 17
Waning Gibbous
Feb 22
Last Quarter
Feb 28
New
Mar 8
First Quarter
Mar 16
Full

Hourly Weather History & Observations

Time (AKST) Temp. Windchill Dew Point Humidity Pressure Visibility Wind Dir Wind Speed Gust Speed Precip Events Conditions
12:53 AM 10.9 °F - 10.0 °F 96% 29.08 in 10.0 mi Calm Calm - N/A   Mostly Cloudy
1:53 AM 12.0 °F - 10.9 °F 95% 29.09 in 10.0 mi Calm Calm - N/A   Overcast
3:53 AM 12.0 °F - 9.0 °F 88% 29.08 in 10.0 mi Calm Calm - N/A   Overcast
4:53 AM 12.0 °F - 10.0 °F 92% 29.08 in 10.0 mi Calm Calm - N/A   Overcast
5:53 AM 12.0 °F - 10.0 °F 92% 29.08 in 10.0 mi Calm Calm - N/A   Overcast
6:37 AM 12.2 °F - 12.2 °F 100% 29.06 in 2.5 mi Calm Calm - 0.00 in Snow Light Snow
6:53 AM 14.0 °F 8.2 °F 12.9 °F 95% 29.07 in 5.0 mi North 3.5 mph - 0.00 in Snow Light Snow
7:53 AM 16.0 °F - 14.0 °F 92% 29.07 in 3.0 mi Calm Calm - 0.00 in Snow Light Snow
8:06 AM 15.8 °F - 14.0 °F 93% 29.05 in 2.5 mi Calm Calm - 0.00 in Snow Light Snow
8:53 AM 16.0 °F - 15.1 °F 96% 29.06 in 1.5 mi Calm Calm - 0.01 in Snow Light Snow
9:53 AM 18.0 °F - 16.0 °F 92% 29.07 in 1.2 mi Calm Calm - 0.00 in Snow Light Snow
10:20 AM 19.4 °F - 17.6 °F 93% 29.06 in 3.0 mi Calm Calm - 0.00 in Snow Light Snow
10:28 AM 19.4 °F 14.3 °F 17.6 °F 93% 29.06 in 6.0 mi NNE 3.5 mph - 0.00 in Snow Light Snow
10:53 AM 19.9 °F - 18.0 °F 92% 29.07 in 10.0 mi Calm Calm - 0.00 in   Overcast
11:53 AM 23.0 °F 17.0 °F 18.0 °F 81% 29.08 in 10.0 mi NNE 4.6 mph - N/A   Overcast
12:19 PM 23.0 °F 15.8 °F 17.6 °F 80% 29.07 in 10.0 mi NE 5.8 mph - N/A   Overcast
12:53 PM 23.0 °F 13.9 °F 17.1 °F 78% 29.09 in 10.0 mi ENE 8.1 mph - N/A   Overcast
1:53 PM 24.1 °F 18.2 °F 17.1 °F 75% 29.09 in 10.0 mi NE 4.6 mph - N/A   Overcast
2:53 PM 25.0 °F 18.1 °F 16.0 °F 69% 29.10 in 10.0 mi ENE 5.8 mph - N/A   Clear
3:53 PM 24.1 °F 19.7 °F 15.1 °F 69% 29.11 in 10.0 mi NE 3.5 mph - N/A   Clear
4:53 PM 24.1 °F 19.7 °F 14.0 °F 65% 29.12 in 10.0 mi ENE 3.5 mph - N/A   Partly Cloudy
5:53 PM 23.0 °F - 15.1 °F 72% 29.14 in 10.0 mi Calm Calm - N/A   Mostly Cloudy
6:53 PM 18.0 °F 9.8 °F 12.9 °F 81% 29.16 in 10.0 mi North 5.8 mph - N/A   Overcast
7:53 PM 14.0 °F - 10.0 °F 84% 29.19 in 10.0 mi Calm Calm - N/A   Clear
8:53 PM 10.9 °F - 8.1 °F 88% 29.21 in 10.0 mi Calm Calm - N/A   Clear
9:53 PM 8.1 °F 1.4 °F 6.1 °F 92% 29.24 in 10.0 mi NNE 3.5 mph - N/A   Clear
10:53 PM 5.0 °F -2.1 °F 3.0 °F 92% 29.25 in 10.0 mi NNE 3.5 mph - N/A   Clear
11:53 PM 3.9 °F -5.3 °F 1.9 °F 91% 29.27 in 10.0 mi North 4.6 mph - N/A   Clear